Back to catalog

STARLINK-11603

AliveCommunicationsVLEO
NORAD 63671·PAYLOAD·🇺🇸 United States

Launched Apr 28, 2025 from Cape Canaveral Space Force Station

Loading…

Next Passes (next 24 hours)

TLE

FreshSource: CelesTrak SupGP

Epoch: Sep 14, 2026, 21:08 UTC

1 63671C 25085H   26257.88104167  .00061085  00000+0  47463-3 0  2573
2 63671  43.0006 218.1209 0001576 260.5474 174.4936 15.70798925    16

Track STARLINK-11603 in real time with AllMySat

Download on the App Store